Terminal Aerodrome Forecast
Issued by NWS

Home | Current Version | Previous Version | Text Only | Print | Product List | Glossary On
Versions: 1 2 3 4 5 6 7 8 9 10 11 12 13 14 15 16 17 18 19 20 21 22 23 24 25 26 27 28 29 30 31 32 33 34 35 36 37 38 39 40 41 42 43 44 45 46 47 48 49 50
000
FTUS45 KBOU 230125 AAA
TAFAPA
TAF AMD
KAPA 230125Z 2301/2324 04010KT P6SM -TSRA SCT020 BKN040CB BKN070
     FM230200 05009KT P6SM VCTS SCT040CB BKN070
      TEMPO 2302/2304 -TSRA SCT018 BKN035CB
     FM230500 08008KT P6SM VCSH SCT015 BKN030
     FM230800 11005KT 2SM BR BKN008 OVC020
      TEMPO 2310/2314 1/2SM FG BKN005
     FM231500 08005KT 3SM BR BKN009 OVC015
     FM231700 11010KT P6SM SCT012 SCT025
     FM231900 13012KT P6SM SCT025 BKN045
      TEMPO 2320/2324 VRB25G35KT 4SM -TSRA BKN018CB OVC035=

USA.gov is the U.S. government's official web portal to all federal, state and local government web resources and services.